Torna al catalogo

CZ-6A DEB

AttivoSSO
NORAD 54339·DEBRIS·🇨🇳 China

Lanciato Nov 11, 2022 da Taiyuan Satellite Launch Center

Loading…

Prossimi Passaggi (prossime 24 ore)

TLE

AggiornatoSource: Space-Track

Epoca: Sep 14, 2026, 18:30 UTC

1 54339U 22151CJ  26257.77104284  .00000173  00000-0  11888-3 0  9990
2 54339  98.8382 257.0631 0043532  86.2889 274.3259 14.11226101197217

Traccia CZ-6A DEB in tempo reale con AllMySat

Download on the App Store